Погода в Клерво

Люксембург     50°03′17″N   6°01′50″E
темп.,
°C
ветер,
м/с
пор.,
м/с
влажн.,
%
обл.,
%
осадки,
мм/ч
давл.,
гПа
погр.,
м
4 июля, пн
пн423:00+11ссз33844 0.0 102142
02:00+9ссз22880 0.0 102114
05:00+9с11890 0.0 102110
08:00+13ссз12765 0.0 1022154
11:00+18з12560 0.0 10211009
14:00+21з23450 0.0 10201658
17:00+22зсз23410 0.0 10191934
20:00+20сз34610 0.0 1019112
5 июля, вт
вт523:00+14ссз33690 0.0 102134
02:00+11ссв22810 0.0 102121
05:00+10ссз22900 0.0 102221
08:00+15ссз227035 0.0 1022136
11:00+20зсз33550 0.0 10221419
14:00+22зсз44410 0.0 10221975
17:00+22сз554060 0.0 10212369
20:00+18ссз795311 0.0 1022672
6 июля, ср
ср623:00+12ссз511672 0.0 1025343
02:00+8с33875 0.0 102638
05:00+6ссз229119 0.0 102720
08:00+11ссз34725 0.0 1027210
11:00+17с45459 0.0 10261027
14:00+20сз4441100 0.0 10251624
17:00+20зсз4647100 0.0 10231592
20:00+18сз5764100 0.0 1023738
7 июля, чт
чт723:00+14сз259090 0.0 1024163
02:00+12з249598 0.0 102363
05:00+13з31094100 0.2 1022304
08:00+14зсз5119596 0.6 1021617
11:00+14сз6109687 0.6 1022612
14:00+18ссз697136 1.0 10231120
17:00+18ссз7105887 0.3 10241739
20:00+18ссз595622 0.3 10251446
8 июля, пт
пт823:00+11с410765 0.0 1028292
02:00+8с39941 0.0 1030228
05:00+6ссз35971 0.0 103093
08:00+11с498797 0.0 1031602
11:00+13с4670100 0.0 1031951
14:00+18ссв465515 0.0 10301309
17:00+20с67506 0.0 10291455
20:00+17ссв57663 0.0 10301048